Погода в Кудусе

Индонезия     6°47′53″S   110°49′53″E
темп.,
°C
ветер,
м/с
пор.,
м/с
влажн.,
%
обл.,
%
осадки,
мм/ч
давл.,
гПа
погр.,
м
4 августа, ср
ср401:00+24вюв358924 0.0 1012129
04:00+23в369124 0.0 1012155
07:00+25вюв46836 0.0 1014276
10:00+31вюв45546 0.0 10131153
13:00+34вюв234295 0.0 10102360
16:00+30з216016 0.1 1009519
19:00+25юв33825 1.9 101266
22:00+25в22816 0.3 101343
5 августа, чт
чт501:00+24всв24855 0.6 101290
04:00+23в35895 0.0 1012135
07:00+25вюв358010 0.0 1014250
10:00+31вюв45547 0.0 10131395
13:00+34ссв233997 0.0 10102117
16:00+32вюв4445100 0.0 10091112
19:00+26всв227399 0.0 101137
22:00+25в248240 1.1 101383
6 августа, пт
пт601:00+25в378497 1.1 1012232
04:00+23в378643 0.0 1012194
07:00+25вюв368090 0.0 1013278
10:00+31вюв4552100 0.0 10131215
13:00+34вюв443921 0.0 10102021
16:00+32всв334696 0.0 10091574
19:00+26всв237712 0.0 101199
22:00+26всв28820 0.3 1012262
7 августа, сб
сб701:00+25вюв35885 0.6 1012127
04:00+24вюв368870 0.0 1011155
07:00+25вюв468050 0.0 1012325
10:00+31вюв555597 0.0 10121287
13:00+34в444126 0.0 10092149
16:00+32всв545298 0.0 1008909
19:00+26в23799 0.6 101176
22:00+26в24825 0.3 1012114
8 августа, вс
вс801:00+25в38908 1.3 1011288
04:00+24вюв39895 0.1 1011302
07:00+25вюв48839 0.1 1013391
10:00+31вюв565597 0.0 10121332
13:00+34вюв65405 0.0 10082080
16:00+33вюв34469 0.0 10081636
19:00+26вюв357813 2.3 101187
22:00+26всв23805 0.8 101282